Flag for Belgium Weather past 2 weeks in Eupen, Belgium

Now
36 °F

Scattered clouds.


Feels Like: 32 °F
Forecast: 33 / 42 °F
Wind: 5 mph from Southwest

Location: Spa / La Sauveniere

Current Time: Mar 3, 2015 at 10:41:18 AM

Latest Report: Mar 3, 2015 at 10:00 AM


Visibility: 16 mi

Pressure: 30.13 "Hg

Humidity: 74%

Dew point: 29 °F

Location of EupenLocation

Historic Weather in Eupen — Graph

°F

Eupen temperature yesterday

Maximum temperature yesterday: 43 °F (at 1:00 AM)
Minimum temperature yesterday: 32 °F (at 3:00 PM)
Average temperature yesterday: 37 °F

Past Weeks' High & Low Weather Summary

 TemperatureHumidityPressure
High47 °F (Mar 1, 3:00 PM)100% (Feb 17, 5:00 AM)30.79 "Hg (Feb 17, 5:00 AM)
Low28 °F (Feb 16, 9:00 AM)54% (Feb 28, 4:00 PM)29.41 "Hg (Feb 21, 4:00 AM)
Average35 °F88%30.00 "Hg
* Reported Feb 16 9:00 AM — Mar 3 9:00 AM, Eupen, Weather by CustomWeather, © 2015

Note: Actual official high and low records may vary slightly from our data, if they occured in-between our weather recording intervals... More about our weather records

Advertising

Eupen weather history for previous 24 hours

 ConditionsComfort  
Time TempWeatherWind HumidityBarometerVisibility
9:00 AM
Tue, Mar 3
33 °FOvercast.3 mph84%30.14 "Hg13 mi
8:00 AM33 °FScattered clouds.5 mph86%30.14 "Hg12 mi
7:00 AM33 °FClear.5 mph87%30.14 "Hg11 mi
6:00 AM33 °FClear.5 mph88%30.14 "Hg12 mi
5:00 AM34 °FOvercast.6 mph86%30.13 "Hg12 mi
4:00 AM34 °FLow clouds.5 mph86%30.13 "Hg12 mi
3:00 AM33 °FPassing clouds.5 mph85%30.13 "Hg11 mi
2:00 AM34 °FOvercast.6 mph83%30.12 "Hg11 mi
1:00 AM33 °FPassing clouds.6 mph83%30.11 "Hg11 mi
12:00 AM33 °FClear.6 mph83%30.09 "Hg10 mi
11:00 PM
Mon, Mar 2
34 °FClear.6 mph80%30.07 "Hg12 mi
9:00 PM35 °FClear.6 mph74%30.00 "Hg14 mi
8:00 PM36 °FOvercast.8 mph71%29.96 "Hg17 mi
7:00 PM36 °FOvercast.6 mph71%29.93 "Hg22 mi
6:00 PM35 °FPartly sunny.6 mph74%29.89 "Hg25 mi
5:00 PM35 °FSunny.6 mph84%29.85 "Hg28 mi
4:00 PM35 °FLow clouds.8 mph91%29.82 "Hg28 mi
3:00 PM32 °FLight snow. Low clouds.6 mph93%29.82 "Hg1 mi
2:00 PM41 °FOvercast.8 mph61%29.77 "Hg19 mi
1:00 PM41 °FPartly sunny.8 mph60%29.78 "Hg22 mi
12:00 PM39 °FSunny.8 mph67%29.77 "Hg19 mi
11:00 AM37 °FScattered clouds.6 mph82%29.78 "Hg15 mi
Weather by CustomWeather, © 2015

See weather overviewHow to use our weather pages